• In Hungary
  • List of Countries
  • For 7 days
  • Water Temperature
  • Satellite Maps
  • Weather Map
  • News
  • Weather Widgets
  • user-avatar
    Login

    Hourly Weather Kavarna

    Today, 17 December, Sunday

    Time Temperature Precipitation Wind Pressure Humidity
    00:00 +11°C° 0.3 mm 6 mps 756 mmHg 75%
    01:00 +12°C° 0.3 mm 5 mps 756 mmHg 78%
    02:00 +11°C° 0 mm 4 mps 756 mmHg 77%
    03:00 +11°C° 0.9 mm 4 mps 756 mmHg 78%
    04:00 +10°C° 0.9 mm 4 mps 756 mmHg 79%
    05:00 +8°C° 0.9 mm 4 mps 756 mmHg 81%
    06:00 +8°C° 1.4 mm 5 mps 756 mmHg 84%
    07:00 +8°C° 1.4 mm 5 mps 756 mmHg 87%
    08:00 +6°C° 0 mm 7 mps 756 mmHg 88%
    09:00 +6°C° 1.7 mm 7 mps 756 mmHg 88%
    10:00 +6°C° 1.7 mm 7 mps 756 mmHg 89%
    11:00 +6°C° 1.7 mm 7 mps 756 mmHg 89%
    12:00 +6°C° 2 mm 8 mps 756 mmHg 88%
    13:00 +5°C° 2 mm 8 mps 756 mmHg 87%
    14:00 +5°C° 0 mm 8 mps 755 mmHg 86%
    15:00 +5°C° 1.8 mm 8 mps 755 mmHg 86%
    16:00 +3°C° 1.8 mm 9 mps 755 mmHg 85%
    17:00 +3°C° 1.8 mm 9 mps 755 mmHg 85%
    18:00 +3°C° 0.4 mm 9 mps 756 mmHg 85%
    19:00 +3°C° 0.4 mm 9 mps 756 mmHg 84%
    20:00 +3°C° 0.4 mm 9 mps 756 mmHg 84%
    21:00 +3°C° 0.1 mm 9 mps 757 mmHg 83%
    22:00 +2°C° 0.1 mm 9 mps 757 mmHg 83%
    23:00 +2°C° 0.1 mm 9 mps 758 mmHg 83%

    Tomorrow, 18 December, Monday

    Time Temperature Precipitation Wind Pressure Humidity
    00:00 +2°C° 0 mm 9 mps 758 mmHg 82%
    01:00 +2°C° 0 mm 8 mps 759 mmHg 82%
    02:00 +1°C° 0 mm 8 mps 760 mmHg 81%
    03:00 +1°C° 0 mm 8 mps 760 mmHg 81%
    04:00 +1°C° 0 mm 8 mps 761 mmHg 81%
    05:00 0°C° 0 mm 8 mps 761 mmHg 81%
    06:00 0°C° 0 mm 7 mps 762 mmHg 80%
    07:00 0°C° 0 mm 7 mps 762 mmHg 80%
    08:00 -1°C° 0 mm 7 mps 762 mmHg 79%
    09:00 +1°C° 0 mm 6 mps 763 mmHg 75%
    10:00 +2°C° 0 mm 6 mps 763 mmHg 71%
    11:00 +2°C° 0 mm 6 mps 764 mmHg 67%
    12:00 +3°C° 0 mm 5 mps 764 mmHg 65%
    13:00 +3°C° 0 mm 5 mps 763 mmHg 64%
    14:00 +4°C° 0 mm 4 mps 763 mmHg 62%
    15:00 +4°C° 0 mm 4 mps 763 mmHg 64%
    16:00 +4°C° 0 mm 4 mps 764 mmHg 66%
    17:00 +2°C° 0 mm 5 mps 764 mmHg 69%
    18:00 +2°C° 0 mm 5 mps 764 mmHg 70%
    19:00 +2°C° 0 mm 5 mps 764 mmHg 72%
    20:00 +1°C° 0 mm 5 mps 764 mmHg 74%
    21:00 +1°C° 0 mm 5 mps 764 mmHg 75%
    22:00 +1°C° 0 mm 5 mps 764 mmHg 76%
    23:00 +1°C° 0 mm 5 mps 765 mmHg 77%

    Day after tomorrow, 19 December, Tuesday

    Time Temperature Precipitation Wind Pressure Humidity
    00:00 -1°C° 0.1 mm 6 mps 765 mmHg 76%
    01:00 -1°C° 0.1 mm 6 mps 765 mmHg 76%
    02:00 -1°C° 0.1 mm 6 mps 765 mmHg 76%
    03:00 -1°C° 0.2 mm 6 mps 765 mmHg 77%
    04:00 -1°C° 0.2 mm 7 mps 765 mmHg 77%
    05:00 -1°C° 0.2 mm 7 mps 765 mmHg 78%
    06:00 -1°C° 0.2 mm 7 mps 766 mmHg 78%
    07:00 -1°C° 0.2 mm 7 mps 766 mmHg 78%
    08:00 -1°C° 0.2 mm 7 mps 767 mmHg 78%
    09:00 -1°C° 0.1 mm 8 mps 767 mmHg 76%
    10:00 -1°C° 0.1 mm 8 mps 767 mmHg 74%
    11:00 -1°C° 0.1 mm 8 mps 767 mmHg 72%
    12:00 0°C° 0.1 mm 8 mps 767 mmHg 69%
    13:00 0°C° 0.1 mm 8 mps 767 mmHg 67%
    14:00 0°C° 0.1 mm 9 mps 767 mmHg 65%
    15:00 0°C° 0.3 mm 8 mps 767 mmHg 66%
    16:00 0°C° 0.3 mm 8 mps 768 mmHg 67%
    17:00 0°C° 0.3 mm 8 mps 768 mmHg 67%
    18:00 -1°C° 0.3 mm 8 mps 768 mmHg 70%
    19:00 -1°C° 0.3 mm 8 mps 768 mmHg 72%
    20:00 -1°C° 0.3 mm 8 mps 769 mmHg 74%
    21:00 -1°C° 0.2 mm 8 mps 769 mmHg 74%
    22:00 -1°C° 0.2 mm 8 mps 769 mmHg 75%
    23:00 -1°C° 0.2 mm 8 mps 769 mmHg 75%

    20 December, Wednesday

    Time Temperature Precipitation Wind Pressure Humidity
    00:00 -2°C° 0.4 mm 8 mps 769 mmHg 75%
    01:00 -2°C° 0.4 mm 8 mps 769 mmHg 75%
    02:00 -2°C° 0.4 mm 8 mps 769 mmHg 76%
    03:00 -2°C° 0.2 mm 8 mps 769 mmHg 76%
    04:00 -2°C° 0.2 mm 8 mps 769 mmHg 76%
    05:00 -4°C° 0.2 mm 8 mps 770 mmHg 76%
    06:00 -3°C° 0.1 mm 7 mps 770 mmHg 76%
    07:00 -3°C° 0.1 mm 7 mps 770 mmHg 76%
    08:00 -3°C° 0.1 mm 6 mps 770 mmHg 76%
    09:00 -3°C° 0 mm 6 mps 771 mmHg 73%
    10:00 -2°C° 0 mm 6 mps 771 mmHg 69%
    11:00 -1°C° 0 mm 6 mps 771 mmHg 66%
    12:00 -1°C° 0 mm 6 mps 771 mmHg 64%
    13:00 -1°C° 0 mm 6 mps 771 mmHg 63%
    14:00 +1°C° 0 mm 6 mps 771 mmHg 62%
    15:00 -1°C° 0 mm 6 mps 771 mmHg 65%
    16:00 -1°C° 0 mm 5 mps 771 mmHg 68%
    17:00 -1°C° 0 mm 5 mps 771 mmHg 71%
    18:00 -1°C° 0 mm 5 mps 771 mmHg 73%
    19:00 -2°C° 0 mm 4 mps 772 mmHg 74%
    20:00 -2°C° 0 mm 4 mps 772 mmHg 76%
    21:00 -2°C° 0 mm 4 mps 772 mmHg 78%
    22:00 -2°C° 0 mm 4 mps 772 mmHg 80%
    23:00 -2°C° 0 mm 4 mps 772 mmHg 82%

    21 December, Thursday

    Time Temperature Precipitation Wind Pressure Humidity
    00:00 -2°C° 0 mm 4 mps 772 mmHg 84%
    01:00 -2°C° 0 mm 4 mps 772 mmHg 86%
    02:00 -3°C° 0 mm 4 mps 772 mmHg 87%
    03:00 -3°C° 0 mm 4 mps 772 mmHg 88%
    04:00 -2°C° 0 mm 3 mps 772 mmHg 88%
    05:00 -2°C° 0 mm 3 mps 772 mmHg 88%
    06:00 -3°C° 0 mm 4 mps 772 mmHg 86%
    07:00 -3°C° 0 mm 4 mps 772 mmHg 84%
    08:00 -3°C° 0 mm 4 mps 772 mmHg 82%
    09:00 -2°C° 0 mm 4 mps 772 mmHg 76%
    10:00 -1°C° 0 mm 4 mps 772 mmHg 69%
    11:00 -1°C° 0 mm 5 mps 772 mmHg 62%
    12:00 0°C° 0 mm 5 mps 771 mmHg 61%
    13:00 0°C° 0 mm 5 mps 771 mmHg 60%
    14:00 0°C° 0 mm 5 mps 770 mmHg 59%
    15:00 0°C° 0 mm 5 mps 770 mmHg 64%
    16:00 -1°C° 0 mm 5 mps 770 mmHg 69%
    17:00 -2°C° 0 mm 4 mps 769 mmHg 73%
    18:00 -2°C° 0 mm 5 mps 769 mmHg 76%
    19:00 -2°C° 0 mm 5 mps 769 mmHg 78%
    20:00 -4°C° 0 mm 5 mps 769 mmHg 80%
    21:00 -4°C° 0 mm 5 mps 769 mmHg 80%
    22:00 -4°C° 0 mm 6 mps 769 mmHg 80%
    23:00 -4°C° 0 mm 6 mps 769 mmHg 79%

    22 December, Friday

    Time Temperature Precipitation Wind Pressure Humidity
    00:00 -4°C° 0 mm 6 mps 768 mmHg 78%
    01:00 -4°C° 0 mm 6 mps 768 mmHg 78%
    02:00 -4°C° 0 mm 5 mps 768 mmHg 77%
    03:00 -4°C° 0 mm 5 mps 767 mmHg 75%
    04:00 -4°C° 0 mm 5 mps 767 mmHg 74%
    05:00 -4°C° 0 mm 5 mps 767 mmHg 72%
    06:00 -4°C° 0 mm 5 mps 767 mmHg 70%
    07:00 -4°C° 0 mm 5 mps 767 mmHg 68%
    08:00 -2°C° 0 mm 5 mps 767 mmHg 66%
    09:00 -1°C° 0 mm 5 mps 766 mmHg 64%
    10:00 -1°C° 0 mm 6 mps 766 mmHg 62%
    11:00 +1°C° 0 mm 6 mps 766 mmHg 60%
    12:00 +2°C° 0 mm 6 mps 765 mmHg 63%
    13:00 +2°C° 0 mm 7 mps 765 mmHg 66%
    14:00 +2°C° 0 mm 7 mps 764 mmHg 69%
    15:00 +2°C° 0 mm 7 mps 764 mmHg 73%
    16:00 +2°C° 0 mm 7 mps 763 mmHg 77%
    17:00 0°C° 0 mm 7 mps 763 mmHg 81%
    18:00 0°C° 0.1 mm 8 mps 763 mmHg 82%
    19:00 0°C° 0.1 mm 8 mps 763 mmHg 82%
    20:00 0°C° 0.1 mm 8 mps 762 mmHg 83%
    21:00 0°C° 0 mm 8 mps 762 mmHg 84%
    22:00 -1°C° 0 mm 8 mps 762 mmHg 86%
    23:00 -1°C° 0 mm 8 mps 762 mmHg 87%
    Show more